Location: Goll?ig?dem
(16.6773°N, 80.7332°E)
Time: 07:19:53
(UTC+00:00)

FENGYUN 3A - Pass Details

Date: 21 April 2021
Orbit: 823 x 837 km, 98.4° (Epoch: 06 May)

Event Time Altitude Azimuth Distance (km) Brightness Sun altitude
Rises 22:45:16 0° 7° (N) 3,351 7.2 -21.9°
Reaches altitude 10° 22:47:38 10° 4° (N) 2,417 6.4 -21.4°
Maximum altitude 22:52:54 64° 284° (WNW) 907 3.6 -20.2°
Enters shadow 22:55:45 28° 211° (SSW) 1,507 4.6 -19.6°
